[[{"header":{"parameterUnit":"m.s-1","parameterCategory":1,"la1":30.2991,"la2":30.254,"lo1":-89.0895,"lo2":-89.0444,"dy":0.0017,"dx":0.0017,"nx":28,"ny":28,"refTime":"2025-04-26T03:00:00:Z","depth":0,"parameterNumber":2,"parameterNumberName":"U-component_of_WINDS"},"data":[0,0,0,0,0,0,0,0,0,0,0,0,0,0,0,0,0,0,0,0,0,0,0,0,0,0,0,0,0,0,0,0,0,0,0,0,0,0,0,0,0,0,0,0,0,0,0,0,0,0,0,0,0,0,0,0,0,0,1.1266,1.1266,0,1.1339,1.1339,1.134,1.1345,1.1344,1.1343,1.1342,1.1417,1.142,1.1423,0,0,0,0,0,0,0,0,0,0,0,0,0,1.1128,1.1131,1.1266,1.1266,1.1267,1.1339,1.134,1.1341,1.1345,1.1344,1.1343,1.1342,1.1416,1.1419,1.1423,0,0,0,0,0,0,0,0,0,0,0,0,0,1.1193,1.1131,1.1265,1.1278,1.128,1.1338,1.134,1.1341,1.1345,1.1344,1.1343,1.1341,1.1415,1.1419,1.1423,1.1474,0,0,1.1436,1.1438,0,0,0,0,0,0,0,0,1.1189,1.1198,1.1275,1.1277,1.128,1.1331,1.1319,1.1385,1.1345,1.132,1.1342,1.1341,1.139,1.1396,1.1412,1.1477,1.1481,1.1436,1.1439,1.1441,1.1442,0,0,0,0,0,0,0,1.1185,1.1195,1.1294,1.1276,1.1279,1.128,1.1287,1.1331,1.1361,1.1322,1.1323,1.1331,1.139,1.1408,1.1414,1.1482,1.1436,1.144,1.1442,1.1444,1.159,1.1591,0,0,0,0,0,0,1.1178,1.1191,1.1292,1.1297,1.123,1.1283,1.1292,1.1316,1.1361,1.1366,1.1332,1.1331,1.1402,1.1409,1.1417,1.1477,1.1441,1.1445,1.1447,1.1588,1.159,1.1591,0,0,0,0,0,0,1.1175,1.1187,1.1289,1.1244,1.1257,1.1287,1.1314,1.1318,1.1336,1.1368,1.1373,1.1345,1.1401,1.1411,1.1459,1.148,1.1446,1.145,1.1587,1.1589,1.1591,1.1599,0,0,0,0,0,0,1.1171,1.1186,1.1206,1.1245,1.126,1.1331,1.1315,1.132,1.1343,1.1342,1.1382,1.1387,1.1401,1.1453,1.1463,1.1485,1.1453,1.1585,1.1588,1.159,1.1597,1.1601,1.1605,0,0,0,0,0,1.1166,1.1206,1.1207,1.1219,1.1285,1.1332,1.1341,1.1356,1.1345,1.1364,1.1385,1.1386,1.1476,1.1458,1.1469,1.1493,1.1584,1.1587,1.159,1.1596,1.1601,1.1605,0,0,0,0,0,0,1.117,1.1212,1.1213,1.1267,1.1296,1.1333,1.1358,1.1361,1.1394,1.1392,1.141,1.1418,1.1466,1.1484,1.1463,1.1543,1.1528,1.1534,1.1529,1.1534,1.1538,1.1532,1.1457,0,0,0,0,0,1.1177,1.1212,1.1246,1.129,1.1305,1.1329,1.135,1.1359,1.139,1.1402,1.1426,1.1456,1.1491,1.1514,1.1548,1.16,1.1608,1.1622,1.1625,1.1628,1.1633,1.166,1.1666,1.1601,1.1601,1.1601,0,0,1.1192,1.1219,1.124,1.1291,1.1315,1.135,1.1339,1.1377,1.1403,1.1408,1.1454,1.1473,1.1507,1.1557,1.158,1.1574,1.1652,1.1632,1.1635,1.1637,1.1663,1.1669,1.1675,1.1604,1.1603,1.1603,0,0,1.1236,1.1261,1.1299,1.1323,1.1358,1.1374,1.1383,1.1419,1.1432,1.1478,1.1482,1.1513,1.1573,1.1597,1.1617,1.1668,1.1669,1.1678,1.1698,1.1724,1.1729,1.1733,1.175,1.1756,1.1683,1.1683,1.1683,0,1.125,1.1303,1.1319,1.1356,1.1377,1.1383,1.1421,1.1443,1.1488,1.1502,1.1495,1.1569,1.1593,1.1647,1.1659,1.1676,1.1685,1.1674,1.1727,1.1732,1.1736,1.1752,1.1758,1.1684,1.1684,1.1683,1.1683,0,1.1317,1.1354,1.138,1.1422,1.1447,1.1485,1.1505,1.1528,1.1535,1.1551,1.1597,1.1626,1.1664,1.1678,1.1686,1.1733,1.1728,1.1723,1.1709,1.1743,1.1758,1.1764,1.1685,1.1684,1.1684,1.1684,0,0,1.1367,1.1416,1.1425,1.1443,1.1482,1.151,1.1547,1.1585,1.1603,1.1634,1.1664,1.1714,1.171,1.1732,1.1742,1.1765,1.1801,1.1757,1.1758,1.1763,1.1853,1.1855,1.1861,1.1802,1.1803,1.1804,1.1849,0,1.1414,1.148,1.1494,1.155,1.1583,1.1588,1.162,1.1647,1.1662,1.1692,1.1709,1.1744,1.1736,1.1749,1.1772,1.1792,1.1819,1.1789,1.1829,1.1831,1.1819,1.187,1.1872,1.1913,1.1855,1.1856,1.1857,0,1.1478,1.1509,1.1569,1.1601,1.1615,1.1644,1.1678,1.1707,1.1737,1.1746,1.177,1.1777,1.1814,1.1799,1.185,1.1829,1.1846,1.1858,1.186,1.1863,1.1845,1.1873,1.1927,1.1933,1.1867,1.1866,1.1865,0,1.1506,1.1562,1.1605,1.1621,1.166,1.1679,1.1697,1.1725,1.1746,1.1776,1.179,1.1824,1.1842,1.1868,1.1883,1.1871,1.1932,1.1918,1.194,1.194,1.1952,1.1951,1.2008,1.1966,1.1966,1.1966,1.1965,0,1.1557,1.1592,1.1617,1.1643,1.1683,1.1698,1.1737,1.1754,1.1779,1.1808,1.1815,1.1841,1.186,1.1889,1.1902,1.1941,1.1949,1.1957,1.196,1.1956,1.1955,1.1967,1.1964,1.1967,1.1967,1.1967,1.1966,0,1.1594,1.1612,1.1658,1.1691,1.17,1.1728,1.1756,1.1781,1.1796,1.1832,1.1841,1.1865,1.1899,1.1917,1.196,1.1968,1.2012,1.2014,1.2001,1.2002,1.2022,1.2019,1.2088,1.2097,1.205,1.205,1.2051,0,1.1624,1.1652,1.1687,1.1706,1.1724,1.1756,1.1776,1.1792,1.1814,1.1848,1.1869,1.1903,1.1931,1.1986,1.2006,1.2039,1.2041,1.2062,1.2046,1.204,1.2039,1.2036,1.2038,1.2065,1.2065,1.2066,1.2066,0,1.1676,1.1683,1.1713,1.1746,1.177,1.1797,1.1823,1.1839,1.1858,1.1882,1.1917,1.1939,1.1982,1.2015,1.2049,1.2066,1.2069,1.2071,1.2078,1.2073,1.2065,1.2068,1.2008,1.207,1.2069,1.2069,1.2069,1.2069,1.1709,1.1733,1.1761,1.1794,1.1815,1.1839,1.1863,1.1881,1.191,1.1946,1.1954,1.199,1.2017,1.2062,1.208,1.2108,1.2104,1.2114,1.2116,1.2118,1.2117,1.2061,1.2115,1.2115,1.2115,1.2115,1.2115,0,1.176,1.1778,1.1807,1.1843,1.1868,1.1869,1.1897,1.1918,1.195,1.1975,1.2002,1.2041,1.2073,1.2096,1.2129,1.2146,1.2148,1.2154,1.2153,1.2156,1.2121,1.2111,1.2152,1.2152,1.2152,1.2152,1.2152,1.2152,1.1789,1.1828,1.1838,1.1888,1.1905,1.1941,1.1957,1.1978,1.1998,1.2041,1.2067,1.2082,1.2106,1.214,1.2169,1.2174,1.2185,1.2191,1.2196,1.2163,1.2159,1.2155,1.2146,1.2193,1.2194,1.2229,1.223,1.223]},{"header":{"parameterUnit":"m.s-1","parameterCategory":1,"la1":30.2991,"la2":30.254,"lo1":-89.0895,"lo2":-89.0444,"dy":0.0017,"dx":0.0017,"nx":28,"ny":28,"refTime":"2025-04-26T03:00:00:Z","depth":0,"parameterNumber":3,"parameterNumberName":"V-component_of_WINDS"},"data":[0,0,0,0,0,0,0,0,0,0,0,0,0,0,0,0,0,0,0,0,0,0,0,0,0,0,0,0,0,0,0,0,0,0,0,0,0,0,0,0,0,0,0,0,0,0,0,0,0,0,0,0,0,0,0,0,0,0,2.7236,2.7236,0,2.7275,2.7275,2.7276,2.7248,2.7247,2.7246,2.7245,2.728,2.7282,2.7284,0,0,0,0,0,0,0,0,0,0,0,0,0,2.7134,2.7136,2.7236,2.7237,2.7237,2.7275,2.7275,2.7276,2.7249,2.7247,2.7246,2.7244,2.728,2.7282,2.7284,0,0,0,0,0,0,0,0,0,0,0,0,0,2.7176,2.7137,2.7236,2.7228,2.7228,2.7275,2.7275,2.7276,2.7249,2.7247,2.7245,2.7244,2.7279,2.7282,2.7285,2.734,0,0,2.7294,2.7296,0,0,0,0,0,0,0,0,2.7173,2.718,2.7229,2.7229,2.7228,2.7255,2.7252,2.7297,2.7249,2.7241,2.7245,2.7243,2.7273,2.7276,2.7287,2.7342,2.7343,2.7294,2.7296,2.7298,2.7299,0,0,0,0,0,0,0,2.7171,2.7178,2.7251,2.7229,2.7229,2.7221,2.7225,2.726,2.7266,2.7241,2.7239,2.7245,2.7272,2.7285,2.7288,2.7344,2.7294,2.7297,2.7299,2.73,2.7443,2.7445,0,0,0,0,0,0,2.7169,2.7176,2.725,2.7252,2.7196,2.7224,2.7229,2.7248,2.7266,2.7267,2.7246,2.7243,2.728,2.7285,2.7289,2.7354,2.7298,2.7301,2.7302,2.7441,2.7444,2.7446,0,0,0,0,0,0,2.7167,2.7176,2.7248,2.7213,2.7222,2.7228,2.725,2.725,2.7262,2.727,2.727,2.7258,2.7279,2.7285,2.7328,2.7355,2.7302,2.7305,2.7439,2.7442,2.7445,2.7484,0,0,0,0,0,0,2.7164,2.7175,2.7198,2.7214,2.7224,2.7288,2.7252,2.7252,2.7268,2.7264,2.7281,2.7281,2.7278,2.7323,2.7331,2.7358,2.7307,2.7437,2.744,2.7444,2.7481,2.7488,2.7495,0,0,0,0,0,2.7161,2.7207,2.7199,2.7208,2.7252,2.7289,2.7295,2.7291,2.727,2.7292,2.7296,2.7281,2.7351,2.7328,2.7336,2.7365,2.7435,2.7439,2.7444,2.7477,2.7487,2.7495,0,0,0,0,0,0,2.7192,2.7209,2.72,2.7253,2.727,2.7285,2.7312,2.7301,2.7323,2.7319,2.7312,2.7316,2.736,2.7367,2.7341,2.7418,2.7389,2.7396,2.7412,2.7421,2.7428,2.7425,2.731,0,0,0,0,0,2.7205,2.7235,2.7248,2.7293,2.7302,2.7306,2.7322,2.7317,2.7334,2.734,2.7348,2.7364,2.7389,2.7406,2.7429,2.7482,2.7484,2.7506,2.7513,2.7519,2.7523,2.755,2.756,2.746,2.746,2.746,0,0,2.7232,2.7245,2.7264,2.73,2.7312,2.7342,2.7312,2.7345,2.7366,2.7345,2.7386,2.7392,2.7408,2.7456,2.7477,2.7463,2.7552,2.7524,2.7529,2.753,2.7556,2.7565,2.7573,2.7463,2.7463,2.7462,0,0,2.7297,2.731,2.7349,2.7363,2.7382,2.7384,2.7394,2.741,2.7413,2.7455,2.7439,2.7464,2.7508,2.752,2.7532,2.76,2.7586,2.7608,2.7645,2.7671,2.7679,2.7686,2.7709,2.7717,2.7614,2.7614,2.7614,0,2.7327,2.7373,2.737,2.7404,2.7419,2.7403,2.7441,2.7454,2.748,2.749,2.7474,2.7528,2.7538,2.7588,2.7605,2.7615,2.7624,2.7606,2.7678,2.7685,2.7691,2.7713,2.7722,2.7616,2.7616,2.7616,2.7615,0,2.7409,2.7441,2.747,2.7496,2.7515,2.7551,2.7552,2.7571,2.7565,2.7568,2.7609,2.762,2.7646,2.7657,2.7652,2.7706,2.7696,2.7679,2.765,2.7703,2.7724,2.7732,2.762,2.7619,2.7618,2.7617,0,0,2.7494,2.7519,2.7529,2.754,2.7561,2.7585,2.7619,2.7645,2.7661,2.7679,2.7706,2.7744,2.7729,2.7742,2.7737,2.7761,2.7812,2.7741,2.7741,2.7752,2.7871,2.7882,2.7892,2.7804,2.7805,2.7807,2.7869,0,2.7558,2.762,2.7618,2.7675,2.7703,2.7688,2.7717,2.7732,2.7736,2.7759,2.7762,2.7789,2.7767,2.7775,2.7798,2.7802,2.7836,2.7797,2.7827,2.7829,2.7823,2.7903,2.7916,2.7974,2.7877,2.7878,2.7879,0,2.7642,2.7664,2.7724,2.7739,2.7751,2.7778,2.7801,2.7824,2.784,2.7841,2.7856,2.7848,2.7881,2.7851,2.7896,2.787,2.7882,2.7886,2.7888,2.7889,2.7856,2.7905,2.7992,2.8001,2.7892,2.7891,2.789,0,2.7696,2.7741,2.7782,2.7792,2.7812,2.7831,2.7839,2.7854,2.7869,2.7889,2.7898,2.7922,2.7934,2.7951,2.7948,2.7927,2.7993,2.7964,2.7993,2.7993,2.8006,2.8005,2.8095,2.8017,2.8017,2.8017,2.8016,0,2.7767,2.7804,2.7806,2.7831,2.7872,2.7868,2.7908,2.7914,2.7927,2.7952,2.794,2.7963,2.7959,2.7982,2.798,2.8016,2.8022,2.8022,2.8021,2.8023,2.8022,2.8029,2.8025,2.8019,2.8018,2.8018,2.8018,0,2.7834,2.7837,2.7881,2.7896,2.79,2.7929,2.7941,2.7964,2.7967,2.7999,2.8006,2.801,2.8036,2.8035,2.8065,2.8063,2.8107,2.8102,2.8102,2.8101,2.813,2.8126,2.8226,2.8238,2.8153,2.8154,2.8155,0,2.7878,2.7906,2.7925,2.7941,2.7951,2.7978,2.7994,2.7992,2.8008,2.8028,2.8048,2.8074,2.8094,2.8136,2.8141,2.8163,2.8157,2.8191,2.816,2.8161,2.8156,2.8154,2.8156,2.8196,2.8197,2.8198,2.8198,0,2.7957,2.7957,2.7981,2.8006,2.8025,2.8044,2.8062,2.8075,2.8075,2.8094,2.8121,2.8137,2.8167,2.8192,2.8213,2.822,2.8209,2.8208,2.8216,2.8217,2.8215,2.8215,2.8117,2.8205,2.8205,2.8204,2.8204,2.8204,2.8013,2.8037,2.8053,2.808,2.8093,2.8109,2.8132,2.8137,2.8161,2.8186,2.8183,2.8213,2.8227,2.8254,2.8264,2.8286,2.8274,2.8285,2.8288,2.829,2.8293,2.8213,2.829,2.829,2.8289,2.8289,2.8289,0,2.8089,2.8099,2.8124,2.8149,2.817,2.8159,2.8178,2.8195,2.8222,2.8237,2.8257,2.8288,2.8311,2.8318,2.8341,2.8357,2.8352,2.8363,2.8361,2.8362,2.8303,2.8294,2.8366,2.8366,2.8366,2.8366,2.8366,2.8366,2.8132,2.8171,2.8173,2.8218,2.8227,2.8257,2.8269,2.8283,2.8295,2.833,2.835,2.8355,2.8366,2.8389,2.841,2.8411,2.8419,2.8432,2.843,2.8375,2.8367,2.8359,2.835,2.8434,2.8434,2.8488,2.8488,2.8488]}]]